Main page
METAR-TAF:

METAR-TAF

Airports :

Zanjan, Iran

latitude: 36-41N, longitude: 048-29E, elevation: 1663 m

Current weather observation

The report was made 8 hours and 13 minutes ago, at 15:00 UTC
Wind 14 kt from the East/Northeast
Temperature 35°C
Humidity 9%
Pressure 1013 hPa
Visibility 10 km or more
Few clouds at a height of 3500 ft

METAR: OITZ 231500Z 06014KT 9999 FEW035 35/M02 Q1013

Time: 03:43 (23:13 UTC)


TAF: missing

Weather observations and forecasts of more than 4000 airports (METAR and TAF reports).

The available stations are represented by yellow and red dots on the map.

Hover mouse over dot to see the name of the station.

Then click to see weather observations and forecasts.

To change the map : click on the green buttons with a black cross to zoom in, on the green button with a dash to zoom out, or on the green arrows for adjacent maps.


METAR-TAF: